Weather History for Hyannis, MA

Change the Weather History Date:

Monday, April 2, 2012

  Actual Average Record
Temperature  
Mean Temperature 40 °F -  
Max Temperature 46 °F 50 °F 71 °F (1967)
Min Temperature 36 °F 35 °F 17 °F (1964)
Degree Days  
Heating Degree Days 24    
Moisture  
Dew Point 36 °F    
Average Humidity 86    
Maximum Humidity 100    
Minimum Humidity 47    
Precipitation  
Precipitation 0.12 in - - ()
Sea Level Pressure  
Sea Level Pressure 29.63 in    
Wind  
Wind Speed 5 mph (NE)    
Max Wind Speed 16 mph    
Max Gust Speed 25 mph    
Visibility 8 miles    
Events Rain    
Averages and records for this station are not official NWS values.
T = Trace of Precipitation, MM = Missing Value Source: NWS Daily Summary

Daily Weather History Graph

Daily Weather History Graph

Search for Another Location

Airport:

Trip Planner

Search our weather history database for the weather conditions in past years. The results will help you decide how hot, cold, wet, or windy it might be!

Date:

Astronomy

Apr. 02, 2012 Rise Set
Actual Time 6:21 AM EDT 7:08 PM EDT
Civil Twilight 5:53 AM EDT 7:36 PM EDT
Nautical Twilight 5:20 AM EDT 8:09 PM EDT
Astronomical Twilight 4:45 AM EDT 8:44 PM EDT
Moon 2:36 PM EDT (4/2) 3:36 AM EDT (4/2)
Length of Visible Light 13h 42m
Length of Day
12h 46m
Waxing Gibbous, 78% of the Moon is Illuminated
Apr 2
Waxing Gibbous
Apr 6
Full
Apr 13
Last Quarter
Apr 21
New
Apr 29
First Quarter

Hourly Weather History & Observations

Time (EDT) Temp. Windchill Dew Point Humidity Pressure Visibility Wind Dir Wind Speed Gust Speed Precip Events Conditions
12:56 AM 39.0 °F 33.4 °F 36.0 °F 89% 29.63 in 10.0 mi SSW 8.1 mph - 0.01 in Rain Light Rain
1:56 AM 39.0 °F 34.8 °F 36.0 °F 89% 29.61 in 6.0 mi South 5.8 mph - 0.01 in Rain Light Rain
2:19 AM 39.2 °F 35.9 °F 35.6 °F 87% 29.59 in 7.0 mi South 4.6 mph - 0.02 in Rain Light Rain
2:35 AM 39.2 °F 35.0 °F 35.6 °F 87% 29.58 in 9.0 mi South 5.8 mph - 0.03 in Rain Light Rain
2:56 AM 39.0 °F 33.4 °F 36.0 °F 89% 29.57 in 7.0 mi South 8.1 mph - 0.04 in Rain Light Rain
3:14 AM 39.2 °F 35.9 °F 37.4 °F 93% 29.56 in 9.0 mi South 4.6 mph - 0.00 in Rain Light Rain
3:21 AM 39.2 °F 37.0 °F 37.4 °F 93% 29.56 in 10.0 mi South 3.5 mph - 0.00 in Rain Light Rain
3:56 AM 39.0 °F 35.7 °F 37.0 °F 93% 29.56 in 10.0 mi South 4.6 mph - 0.00 in Rain Light Rain
4:56 AM 39.0 °F 36.8 °F 37.0 °F 93% 29.56 in 10.0 mi SE 3.5 mph - 0.01 in Rain Light Rain
5:45 AM 39.2 °F - 37.4 °F 93% 29.57 in 6.0 mi Calm Calm - 0.01 in Rain Light Rain
5:56 AM 39.0 °F - 37.0 °F 93% 29.57 in 6.0 mi Calm Calm - 0.01 in Rain Light Rain
6:06 AM 39.2 °F - 37.4 °F 93% 29.57 in 6.0 mi Calm Calm - 0.00 in Rain Light Rain
6:56 AM 39.0 °F - 37.9 °F 96% 29.59 in 1.8 mi Calm Calm - 0.00 in   Overcast
7:06 AM 39.2 °F - 37.4 °F 93% 29.59 in 3.0 mi Calm Calm - N/A   Overcast
7:24 AM 39.2 °F - 37.4 °F 93% 29.59 in 1.8 mi Calm Calm - 0.01 in Rain Light Rain
7:42 AM 39.2 °F - 37.4 °F 93% 29.60 in 3.0 mi Calm Calm - 0.01 in Rain Light Rain
7:56 AM 39.0 °F - 37.9 °F 96% 29.60 in 5.0 mi Calm Calm - 0.01 in   Overcast
8:15 AM 39.2 °F - 37.4 °F 93% 29.60 in 5.0 mi Calm Calm - 0.00 in Rain Light Rain
8:26 AM 39.2 °F - 37.4 °F 93% 29.60 in 3.0 mi Calm Calm - 0.01 in Rain Light Rain
8:30 AM 39.2 °F 35.9 °F 37.4 °F 93% 29.60 in 2.5 mi ENE 4.6 mph - 0.01 in Rain Light Rain
8:44 AM 39.2 °F 37.0 °F 37.4 °F 93% 29.61 in 6.0 mi East 3.5 mph - 0.01 in Rain Light Rain
8:53 AM 39.2 °F 35.9 °F 37.4 °F 93% 29.61 in 10.0 mi East 4.6 mph - 0.01 in Rain Light Rain
8:56 AM 39.9 °F 37.8 °F 37.9 °F 93% 29.61 in 10.0 mi East 3.5 mph - 0.01 in Rain Light Rain
9:08 AM 39.2 °F - 37.4 °F 93% 29.61 in 10.0 mi Calm Calm - 0.00 in   Overcast
9:16 AM 39.2 °F 37.0 °F 37.4 °F 93% 29.61 in 8.0 mi ENE 3.5 mph - 0.00 in   Overcast
9:29 AM 39.2 °F - 37.4 °F 93% 29.62 in 7.0 mi Calm Calm - 0.00 in Rain Light Rain
9:41 AM 39.2 °F - 39.2 °F 100% 29.62 in 3.0 mi Calm Calm - 0.00 in Rain Light Rain
9:56 AM 39.9 °F - 37.9 °F 93% 29.63 in 4.0 mi Calm Calm - 0.01 in Rain Light Rain
10:56 AM 41.0 °F - 39.0 °F 93% 29.63 in 10.0 mi Calm Calm - 0.01 in   Overcast
11:10 AM 42.8 °F 39.3 °F 39.2 °F 87% 29.63 in 10.0 mi ENE 5.8 mph - N/A   Overcast
11:17 AM 41.0 °F 38.0 °F 37.4 °F 87% 29.63 in 10.0 mi NE 4.6 mph - N/A   Overcast
11:56 AM 41.0 °F 34.3 °F 37.9 °F 89% 29.65 in 8.0 mi NE 11.5 mph - 0.00 in Rain Light Rain
12:05 PM 41.0 °F 34.3 °F 37.4 °F 87% 29.65 in 6.0 mi NNE 11.5 mph - 0.00 in Rain Light Rain
12:56 PM 41.0 °F 32.8 °F 37.0 °F 86% 29.66 in 9.0 mi North 16.1 mph 25.3 mph 0.00 in Rain Light Rain
1:04 PM 39.2 °F 30.8 °F 37.4 °F 93% 29.66 in 10.0 mi North 15.0 mph - 0.00 in   Overcast
1:56 PM 42.1 °F 34.9 °F 37.9 °F 85% 29.66 in 10.0 mi NNE 13.8 mph 21.9 mph 0.00 in Rain Light Rain
2:32 PM 42.8 °F 35.8 °F 37.4 °F 81% 29.66 in 10.0 mi North 13.8 mph 20.7 mph 0.00 in   Overcast
2:56 PM 43.0 °F 36.4 °F 36.0 °F 76% 29.66 in 10.0 mi NNE 12.7 mph - 0.00 in   Overcast
3:15 PM 44.6 °F 38.4 °F 35.6 °F 71% 29.66 in 10.0 mi NNW 12.7 mph - N/A   Scattered Clouds
3:56 PM 45.0 °F 40.1 °F 34.0 °F 65% 29.65 in 10.0 mi NNE 9.2 mph - N/A   Clear
4:56 PM 44.1 °F 39.0 °F 33.1 °F 65% 29.65 in 10.0 mi NNW 9.2 mph - N/A   Clear
5:56 PM 44.1 °F 40.8 °F 32.0 °F 63% 29.67 in 10.0 mi NNE 5.8 mph - N/A   Clear
6:56 PM 41.0 °F 39.0 °F 30.9 °F 67% 29.68 in 10.0 mi North 3.5 mph - N/A   Clear
7:56 PM 36.0 °F - 32.0 °F 86% 29.70 in 10.0 mi Calm Calm - N/A   Mostly Cloudy
8:56 PM 37.9 °F 34.4 °F 33.1 °F 83% 29.73 in 10.0 mi NW 4.6 mph - N/A   Mostly Cloudy
9:56 PM 37.0 °F 33.3 °F 32.0 °F 82% 29.74 in 10.0 mi West 4.6 mph - N/A   Clear
10:56 PM 42.1 °F 35.7 °F 25.0 °F 51% 29.74 in 10.0 mi NNW 11.5 mph - N/A   Clear
11:56 PM 42.1 °F 35.7 °F 23.0 °F 47% 29.75 in 10.0 mi NNW 11.5 mph 20.7 mph N/A   Clear